| time (UTC) | temp F | wind direction | speed MPH | gust MPH | rain 1hr in | rain 24hr in | rain mn in | humidity % | barometer mb |
| 20260831210046 | 100 | 91 | 10.0 | 9.0 | 0.00 | 0.00 | 0.00 | ||
| 20260831205546 | 101 | 141 | 8.0 | 6.0 | 0.00 | 0.00 | 0.00 | ||
| 20260831205046 | 100 | 84 | 9.0 | 7.0 | 0.00 | 0.00 | 0.00 | ||
| 20260831204543 | 99 | 79 | 9.0 | 10.0 | 0.00 | 0.00 | 0.00 | ||
| 20260831204043 | 99 | 79 | 12.0 | 12.0 | 0.00 | 0.00 | 0.00 | ||
| 20260831203543 | 98 | 77 | 8.0 | 11.0 | 0.00 | 0.00 | 0.00 | ||
| 20260831203040 | 99 | 101 | 10.0 | 9.0 | 0.00 | 0.00 | 0.00 | ||
| 20260831202541 | 98 | 69 | 10.0 | 8.0 | 0.00 | 0.00 | 0.00 | ||
| 20260831202041 | 99 | 48 | 10.0 | 10.0 | 0.00 | 0.00 | 0.00 | ||
| 20260831201538 | 100 | 203 | 1.0 | 0.0 | 0.00 | 0.00 | 0.00 | ||
| 20260831201038 | 101 | 153 | 9.0 | 4.0 | 0.00 | 0.00 | 0.00 | ||
| 20260831200538 | 99 | 104 | 10.0 | 8.0 | 0.00 | 0.00 | 0.00 | ||
| 20260831200036 | 99 | 127 | 7.0 | 8.0 | 0.00 | 0.00 | 0.00 | ||
| 20260831195536 | 99 | 139 | 9.0 | 10.0 | 0.00 | 0.00 | 0.00 | ||
| 20260831195036 | 100 | 89 | 13.0 | 9.0 | 0.00 | 0.00 | 0.00 | ||
| 20260831194533 | 101 | 158 | 7.0 | 12.0 | 0.00 | 0.00 | 0.00 | ||
| 20260831194033 | 100 | 113 | 8.0 | 10.0 | 0.00 | 0.00 | 0.00 | ||
| 20260831193533 | 100 | 173 | 7.0 | 3.0 | 0.00 | 0.00 | 0.00 | ||
| 20260831193031 | 100 | 163 | 11.0 | 11.0 | 0.00 | 0.00 | 0.00 | ||
| 20260831192531 | 96 | 75 | 7.0 | 7.0 | 0.00 | 0.00 | 0.00 | ||
| 20260831192031 | 98 | 86 | 9.0 | 9.0 | 0.00 | 0.00 | 0.00 | ||
| 20260831191528 | 97 | 56 | 12.0 | 9.0 | 0.00 | 0.00 | 0.00 | ||
| 20260831191029 | 97 | 76 | 9.0 | 11.0 | 0.00 | 0.00 | 0.00 | ||
| 20260831190529 | 98 | 70 | 11.0 | 12.0 | 0.00 | 0.00 | 0.00 | ||
| 20260831190026 | 97 | 134 | 8.0 | 7.0 | 0.00 | 0.00 | 0.00 | ||
| 20260831185526 | 97 | 66 | 9.0 | 7.0 | 0.00 | 0.00 | 0.00 | ||
| 20260831185026 | 100 | 98 | 11.0 | 11.0 | 0.00 | 0.00 | 0.00 | ||
| 20260831184524 | 99 | 110 | 8.0 | 8.0 | 0.00 | 0.00 | 0.00 | ||
| 20260831184024 | 99 | 115 | 16.0 | 9.0 | 0.00 | 0.00 | 0.00 | ||
| 20260831183524 | 98 | 231 | 4.0 | 1.0 | 0.00 | 0.00 | 0.00 | ||
| 20260831183021 | 97 | 174 | 6.0 | 6.0 | 0.00 | 0.00 | 0.00 | ||
| 20260831182521 | 96 | 75 | 12.0 | 10.0 | 0.00 | 0.00 | 0.00 | ||
| 20260831182022 | 96 | 208 | 9.0 | 8.0 | 0.00 | 0.00 | 0.00 | ||
| 20260831181519 | 98 | 170 | 8.0 | 12.0 | 0.00 | 0.00 | 0.00 | ||
| 20260831181019 | 99 | 125 | 10.0 | 9.0 | 0.00 | 0.00 | 0.00 | ||
| 20260831180519 | 97 | 110 | 6.0 | 12.0 | 0.00 | 0.00 | 0.00 | ||
| 20260831180015 | 98 | 160 | 9.0 | 7.0 | 0.00 | 0.00 | 0.00 | ||
| 20260831175516 | 98 | 141 | 8.0 | 6.0 | 0.00 | 0.00 | 0.00 | ||
| 20260831175016 | 99 | 187 | 10.0 | 14.0 | 0.00 | 0.00 | 0.00 |